START_TIME,STEP,MOV.,H8,t_acc.,H43,t_acc.,M25,t_acc.,H9,t_acc.
1979-07-23 06:00:29.070 ,0,1,0.,12.0,0.,12.0,0.,12.0,0.,12.0
1979-07-23 06:00:41.070 ,0,1,0.,12.0,0.,12.0,0.,12.0,0.,12.0
1979-07-23 06:00:53.070 ,4,1,0.,12.0,0.,12.0,0.,12.0,0.,12.0
1979-07-23 06:01:05.070 ,4,1,0.,12.0,0.,12.0,0.,12.0,0.,12.0
1979-07-23 06:01:17.070 ,7,1,0.,12.0,0.,12.0,0.,12.0,0.,12.0
1979-07-23 06:01:29.070 ,7,1,0.,12.0,0.,12.0,0.,12.0,0.,12.0
1979-07-23 06:01:41.070 ,3,1,0.,12.0,0.,12.0,0.,12.0,0.,12.0
1979-07-23 06:01:53.070 ,3,1,0.,12.0,0.,12.0,0.,12.0,0.,12.0
1979-07-23 06:02:05.070 ,0,1,0.,12.0,0.,12.0,0.,12.0,0.,12.0
1979-07-23 06:02:17.070 ,0,1,0.,12.0,0.,12.0,0.,12.0,0.,12.0
1979-07-23 06:02:29.070 ,4,1,0.,12.0,0.,12.0,0.,12.0,0.,12.0
1979-07-23 06:02:41.070 ,4,1,0.,12.0,0.,12.0,0.,12.0,0.,12.0
1979-07-23 06:02:53.070 ,7,1,0.,12.0,0.,12.0,0.,12.0,0.,12.0
1979-07-23 06:03:05.070 ,7,1,0.,12.0,0.,12.0,0.,12.0,0.,12.0
1979-07-23 06:03:17.070 ,3,1,0.,12.0,0.,12.0,0.,12.0,0.,12.0
1979-07-23 06:03:29.070 ,3,1,0.,12.0,0.,12.0,0.,12.0,0.,12.0
1979-07-23 06:03:41.070 ,0,1,0.,12.0,0.,12.0,0.,12.0,0.,12.0
1979-07-23 06:03:53.070 ,0,1,0.,12.0,0.,12.0,0.,12.0,0.,12.0
1979-07-23 06:04:05.070 ,4,1,0.,12.0,0.,12.0,0.,12.0,0.,12.0
1979-07-23 06:04:17.070 ,4,1,0.,12.0,0.,12.0,0.,12.0,0.,12.0
1979-07-23 06:04:29.070 ,7,1,0.,12.0,0.,12.0,0.,12.0,0.,12.0
1979-07-23 06:04:41.070 ,7,1,0.,12.0,0.,12.0,0.,12.0,0.,12.0
1979-07-23 06:04:53.070 ,3,1,0.,12.0,0.,12.0,0.,12.0,0.,12.0
1979-07-23 06:05:05.070 ,3,1,0.,12.0,0.,12.0,0.,12.0,0.,12.0
1979-07-23 06:05:17.070 ,0,1,1.,12.0,0.,12.0,0.,12.0,0.,12.0
1979-07-23 06:05:29.070 ,0,1,0.,12.0,0.,12.0,0.,12.0,0.,12.0
1979-07-23 06:05:41.070 ,0,0,0.,12.0,0.,12.0,0.,12.0,0.,12.0
1979-07-23 06:05:53.070 ,0,0,0.,12.0,0.,12.0,0.,12.0,0.,12.0
1979-07-23 06:06:05.070 ,0,0,0.,12.0,0.,12.0,0.,12.0,0.,12.0
1979-07-23 06:06:17.070 ,0,0,0.,12.0,0.,12.0,0.,12.0,0.,12.0
1979-07-23 06:06:29.070 ,5,0,0.,12.0,0.,12.0,0.,12.0,0.,12.0
1979-07-23 06:06:41.070 ,5,0,0.,12.0,0.,12.0,0.,12.0,0.,12.0
1979-07-23 06:06:53.070 ,5,0,0.,12.0,0.,12.0,0.,12.0,0.,12.0
1979-07-23 06:07:05.070 ,5,0,0.,12.0,0.,12.0,0.,12.0,0.,12.0
1979-07-23 06:07:17.070 ,4,0,0.,12.0,0.,12.0,0.,12.0,0.,12.0
1979-07-23 06:07:29.070 ,4,0,0.,12.0,0.,12.0,0.,12.0,0.,12.0
1979-07-23 06:07:41.070 ,4,0,0.,12.0,0.,12.0,0.,12.0,0.,12.0
1979-07-23 06:07:53.070 ,4,0,0.,12.0,0.,12.0,0.,12.0,0.,12.0
1979-07-23 06:08:05.070 ,3,0,0.,12.0,0.,12.0,0.,12.0,0.,12.0
1979-07-23 06:08:17.070 ,3,0,0.,12.0,0.,12.0,0.,12.0,0.,12.0
1979-07-23 06:08:29.070 ,3,0,0.,12.0,0.,12.0,0.,12.0,0.,12.0
1979-07-23 06:08:41.070 ,3,0,0.,12.0,0.,12.0,0.,12.0,0.,12.0
1979-07-23 06:08:53.070 ,2,0,0.,12.0,0.,12.0,0.,12.0,0.,12.0
1979-07-23 06:09:05.070 ,2,0,0.,12.0,0.,12.0,0.,12.0,0.,12.0
1979-07-23 06:09:17.070 ,2,0,0.,12.0,0.,12.0,0.,12.0,0.,12.0
1979-07-23 06:09:29.070 ,2,0,0.,12.0,0.,12.0,0.,12.0,0.,12.0
1979-07-23 06:09:41.070 ,1,0,0.,12.0,0.,12.0,0.,12.0,0.,12.0
1979-07-23 06:09:53.070 ,1,0,0.,12.0,0.,12.0,0.,12.0,0.,12.0
1979-07-23 06:10:05.070 ,1,0,0.,12.0,0.,12.0,0.,12.0,0.,12.0
1979-07-23 06:10:17.070 ,1,0,0.,12.0,0.,12.0,0.,12.0,0.,12.0
1979-07-23 06:10:29.070 ,0,0,0.,12.0,0.,12.0,0.,12.0,0.,12.0
1979-07-23 06:10:41.070 ,0,0,0.,12.0,0.,12.0,0.,12.0,0.,12.0
1979-07-23 06:10:53.070 ,0,0,0.,12.0,0.,12.0,0.,12.0,0.,12.0
1979-07-23 06:11:05.070 ,0,0,0.,12.0,0.,12.0,0.,12.0,0.,12.0
1979-07-23 06:11:17.070 ,0,0,0.,12.0,0.,12.0,0.,12.0,0.,12.0
1979-07-23 06:11:29.070 ,0,0,0.,12.0,0.,12.0,0.,12.0,0.,12.0
1979-07-23 06:11:41.070 ,0,0,0.,12.0,0.,12.0,0.,12.0,0.,12.0
1979-07-23 06:11:53.070 ,0,0,0.,12.0,0.,12.0,0.,12.0,0.,12.0
1979-07-23 06:12:05.070 ,1,0,0.,12.0,0.,12.0,0.,12.0,0.,12.0
1979-07-23 06:12:17.070 ,1,0,0.,12.0,0.,12.0,0.,12.0,0.,12.0
1979-07-23 06:12:29.070 ,1,0,0.,12.0,0.,12.0,0.,12.0,0.,12.0
1979-07-23 06:12:41.070 ,1,0,0.,12.0,0.,12.0,0.,12.0,0.,12.0
1979-07-23 06:12:53.070 ,2,0,0.,12.0,0.,12.0,0.,12.0,0.,12.0
1979-07-23 06:13:05.070 ,2,0,0.,12.0,0.,12.0,0.,12.0,0.,12.0
1979-07-23 06:13:17.070 ,2,0,0.,12.0,0.,12.0,0.,12.0,0.,12.0
1979-07-23 06:13:29.070 ,2,0,0.,12.0,0.,12.0,0.,12.0,0.,12.0
1979-07-23 06:13:41.070 ,3,0,0.,12.0,0.,12.0,0.,12.0,0.,12.0
1979-07-23 06:13:53.070 ,3,0,0.,12.0,0.,12.0,0.,12.0,0.,12.0
1979-07-23 06:14:05.070 ,3,0,0.,12.0,0.,12.0,0.,12.0,0.,12.0
1979-07-23 06:14:17.070 ,3,0,0.,12.0,0.,12.0,0.,12.0,0.,12.0
1979-07-23 06:14:29.070 ,4,0,0.,12.0,0.,12.0,0.,12.0,0.,12.0
1979-07-23 06:14:41.070 ,4,0,0.,12.0,0.,12.0,0.,12.0,0.,12.0
1979-07-23 06:14:53.070 ,4,0,0.,12.0,0.,12.0,0.,12.0,0.,12.0
1979-07-23 06:15:05.070 ,4,0,0.,12.0,0.,12.0,0.,12.0,0.,12.0
1979-07-23 06:15:17.070 ,5,0,0.,12.0,0.,12.0,0.,12.0,0.,12.0
1979-07-23 06:15:29.070 ,5,0,0.,12.0,0.,12.0,0.,12.0,0.,12.0
1979-07-23 06:15:41.070 ,5,0,0.,12.0,0.,12.0,0.,12.0,0.,12.0
1979-07-23 06:15:53.070 ,5,0,0.,12.0,0.,12.0,0.,12.0,0.,12.0
1979-07-23 06:16:05.070 ,6,0,0.,12.0,0.,12.0,0.,12.0,0.,12.0
1979-07-23 06:16:17.070 ,6,0,0.,12.0,0.,12.0,0.,12.0,0.,12.0
1979-07-23 06:16:29.070 ,6,0,0.,12.0,0.,12.0,0.,12.0,0.,12.0
1979-07-23 06:16:41.070 ,6,0,0.,12.0,0.,12.0,0.,12.0,0.,12.0
1979-07-23 06:16:53.070 ,7,0,0.,12.0,0.,12.0,0.,12.0,0.,12.0
1979-07-23 06:17:05.070 ,7,0,0.,12.0,0.,12.0,0.,12.0,0.,12.0
1979-07-23 06:17:17.070 ,7,0,0.,12.0,0.,12.0,0.,12.0,0.,12.0
1979-07-23 06:17:29.070 ,7,0,0.,12.0,0.,12.0,0.,12.0,0.,12.0
1979-07-23 06:17:41.070 ,7,0,0.,12.0,0.,12.0,0.,12.0,0.,12.0
1979-07-23 06:17:53.070 ,7,0,0.,12.0,0.,12.0,0.,12.0,0.,12.0
1979-07-23 06:18:05.070 ,7,0,0.,12.0,0.,12.0,0.,12.0,0.,12.0
1979-07-23 06:18:17.070 ,7,0,0.,12.0,0.,12.0,0.,12.0,0.,12.0
1979-07-23 06:18:29.070 ,6,0,0.,12.0,0.,12.0,0.,12.0,0.,12.0
1979-07-23 06:18:41.070 ,6,0,0.,12.0,0.,12.0,0.,12.0,0.,12.0
1979-07-23 06:18:53.070 ,6,0,0.,12.0,0.,12.0,0.,12.0,0.,12.0
1979-07-23 06:19:05.070 ,6,0,0.,12.0,0.,12.0,0.,12.0,0.,12.0
1979-07-23 06:19:17.070 ,5,0,0.,12.0,0.,12.0,0.,12.0,0.,12.0
1979-07-23 06:19:29.070 ,5,0,0.,12.0,0.,12.0,0.,12.0,0.,12.0
1979-07-23 06:19:41.070 ,5,0,0.,12.0,0.,12.0,0.,12.0,0.,12.0
1979-07-23 06:19:53.070 ,5,0,0.,12.0,0.,12.0,0.,12.0,0.,12.0
1979-07-23 06:20:05.070 ,4,0,0.,12.0,0.,12.0,0.,12.0,0.,12.0
1979-07-23 06:20:17.070 ,4,0,0.,12.0,0.,12.0,0.,12.0,0.,12.0
1979-07-23 06:20:29.070 ,4,0,0.,12.0,0.,12.0,0.,12.0,0.,12.0
1979-07-23 06:20:41.070 ,4,0,0.,12.0,0.,12.0,0.,12.0,0.,12.0
1979-07-23 06:20:53.070 ,3,0,0.,12.0,0.,12.0,0.,12.0,0.,12.0
1979-07-23 06:21:05.070 ,3,0,0.,12.0,0.,12.0,0.,12.0,0.,12.0
1979-07-23 06:21:17.070 ,3,0,0.,12.0,0.,12.0,0.,12.0,0.,12.0
1979-07-23 06:21:29.070 ,3,0,0.,12.0,0.,12.0,0.,12.0,0.,12.0
1979-07-23 06:21:41.070 ,2,0,0.,12.0,0.,12.0,0.,12.0,0.,12.0
1979-07-23 06:21:53.070 ,2,0,0.,12.0,0.,12.0,0.,12.0,0.,12.0
1979-07-23 06:22:05.070 ,2,0,0.,12.0,0.,12.0,0.,12.0,0.,12.0
1979-07-23 06:22:17.070 ,2,0,0.,12.0,0.,12.0,0.,12.0,0.,12.0
1979-07-23 06:22:29.070 ,1,0,0.,12.0,0.,12.0,0.,12.0,0.,12.0
1979-07-23 06:22:41.070 ,1,0,0.,12.0,0.,12.0,0.,12.0,0.,12.0
1979-07-23 06:22:53.070 ,1,0,0.,12.0,0.,12.0,0.,12.0,0.,12.0
1979-07-23 06:23:05.070 ,1,0,0.,12.0,0.,12.0,0.,12.0,0.,12.0
1979-07-23 06:23:17.070 ,0,0,0.,12.0,0.,12.0,0.,12.0,0.,12.0
1979-07-23 06:23:29.070 ,0,0,0.,12.0,0.,12.0,0.,12.0,0.,12.0
1979-07-23 06:23:41.070 ,0,0,0.,12.0,0.,12.0,0.,12.0,0.,12.0
1979-07-23 06:23:53.070 ,0,0,0.,12.0,0.,12.0,0.,12.0,0.,12.0
1979-07-23 06:24:05.070 ,0,0,0.,12.0,0.,12.0,0.,12.0,0.,12.0
1979-07-23 06:24:17.070 ,0,0,0.,12.0,0.,12.0,0.,12.0,0.,12.0
1979-07-23 06:24:29.070 ,0,0,0.,12.0,0.,12.0,0.,12.0,0.,12.0
1979-07-23 06:24:41.070 ,0,0,0.,12.0,0.,12.0,0.,12.0,0.,12.0
1979-07-23 06:24:53.070 ,1,0,0.,12.0,0.,12.0,0.,12.0,0.,12.0
1979-07-23 06:25:05.070 ,1,0,0.,12.0,0.,12.0,0.,12.0,0.,12.0
1979-07-23 06:25:17.070 ,1,0,0.,12.0,0.,12.0,0.,12.0,0.,12.0
1979-07-23 06:25:29.070 ,1,0,0.,12.0,0.,12.0,0.,12.0,0.,12.0
1979-07-23 06:25:41.070 ,2,0,0.,12.0,0.,12.0,0.,12.0,0.,12.0
1979-07-23 06:25:53.070 ,2,0,0.,12.0,0.,12.0,0.,12.0,0.,12.0
1979-07-23 06:26:05.070 ,2,0,0.,12.0,0.,12.0,0.,12.0,0.,12.0
1979-07-23 06:26:17.070 ,2,0,0.,12.0,0.,12.0,0.,12.0,0.,12.0
1979-07-23 06:26:29.070 ,3,0,0.,12.0,0.,12.0,0.,12.0,0.,12.0
1979-07-23 06:26:41.070 ,3,0,0.,12.0,0.,12.0,0.,12.0,0.,12.0
1979-07-23 06:26:53.070 ,3,0,0.,12.0,0.,12.0,0.,12.0,0.,12.0
1979-07-23 06:27:05.070 ,3,0,0.,12.0,0.,12.0,0.,12.0,0.,12.0
1979-07-23 06:27:17.070 ,4,0,0.,12.0,0.,12.0,0.,12.0,0.,12.0
1979-07-23 06:27:29.070 ,4,0,0.,12.0,0.,12.0,0.,12.0,0.,12.0
1979-07-23 06:27:41.070 ,4,0,0.,12.0,0.,12.0,0.,12.0,0.,12.0
1979-07-23 06:27:53.070 ,4,0,0.,12.0,0.,12.0,0.,12.0,0.,12.0
1979-07-23 06:28:05.070 ,5,0,0.,12.0,0.,12.0,0.,12.0,0.,12.0
1979-07-23 06:28:17.070 ,5,0,0.,12.0,0.,12.0,0.,12.0,0.,12.0
1979-07-23 06:28:29.070 ,5,0,0.,12.0,0.,12.0,0.,12.0,0.,12.0
1979-07-23 06:28:41.070 ,5,0,0.,12.0,0.,12.0,0.,12.0,0.,12.0
1979-07-23 06:28:53.070 ,6,0,0.,12.0,0.,12.0,0.,12.0,0.,12.0
1979-07-23 06:29:05.070 ,6,0,0.,12.0,0.,12.0,0.,12.0,0.,12.0
1979-07-23 06:29:17.070 ,6,0,0.,12.0,0.,12.0,0.,12.0,0.,12.0
1979-07-23 06:29:29.070 ,6,0,0.,12.0,0.,12.0,0.,12.0,0.,12.0
1979-07-23 06:29:41.070 ,7,0,0.,12.0,0.,12.0,0.,12.0,0.,12.0
1979-07-23 06:29:53.070 ,7,0,0.,12.0,0.,12.0,0.,12.0,0.,12.0
1979-07-23 06:30:05.070 ,7,0,0.,12.0,0.,12.0,0.,12.0,0.,12.0
1979-07-23 06:30:17.070 ,7,0,0.,12.0,0.,12.0,0.,12.0,0.,12.0
1979-07-23 06:30:29.070 ,7,0,0.,12.0,0.,12.0,0.,12.0,0.,12.0
1979-07-23 06:30:41.070 ,7,0,0.,12.0,0.,12.0,0.,12.0,0.,12.0
1979-07-23 06:30:53.070 ,7,0,0.,12.0,0.,12.0,0.,12.0,0.,12.0
1979-07-23 06:31:05.070 ,7,0,0.,12.0,0.,12.0,0.,12.0,0.,12.0
1979-07-23 06:31:17.070 ,6,0,0.,12.0,0.,12.0,0.,12.0,0.,12.0
1979-07-23 06:31:29.070 ,6,0,0.,12.0,0.,12.0,0.,12.0,0.,12.0
1979-07-23 06:31:41.070 ,6,0,0.,12.0,0.,12.0,0.,12.0,0.,12.0
1979-07-23 06:31:53.070 ,6,0,0.,12.0,0.,12.0,0.,12.0,0.,12.0
1979-07-23 06:32:05.070 ,5,0,0.,12.0,0.,12.0,0.,12.0,0.,12.0
1979-07-23 06:32:17.070 ,5,0,0.,12.0,0.,12.0,0.,12.0,0.,12.0
1979-07-23 06:32:29.070 ,5,0,0.,12.0,0.,12.0,0.,12.0,0.,12.0
1979-07-23 06:32:41.070 ,5,0,0.,12.0,0.,12.0,0.,12.0,0.,12.0
1979-07-23 06:32:53.070 ,4,0,0.,12.0,0.,12.0,0.,12.0,0.,12.0
1979-07-23 06:33:05.070 ,4,0,0.,12.0,0.,12.0,0.,12.0,0.,12.0
1979-07-23 06:33:17.070 ,4,0,0.,12.0,0.,12.0,0.,12.0,0.,12.0
1979-07-23 06:33:29.070 ,4,0,0.,12.0,0.,12.0,0.,12.0,0.,12.0
1979-07-23 06:33:41.070 ,3,0,0.,12.0,0.,12.0,0.,12.0,0.,12.0
1979-07-23 06:33:53.070 ,3,0,0.,12.0,0.,12.0,0.,12.0,0.,12.0
1979-07-23 06:34:05.070 ,3,0,0.,12.0,0.,12.0,0.,12.0,0.,12.0
1979-07-23 06:34:17.070 ,3,0,0.,12.0,0.,12.0,0.,12.0,0.,12.0
1979-07-23 06:34:29.070 ,2,0,0.,12.0,0.,12.0,0.,12.0,0.,12.0
1979-07-23 06:34:41.070 ,2,0,0.,12.0,0.,12.0,0.,12.0,0.,12.0
1979-07-23 06:34:53.070 ,2,0,0.,12.0,0.,12.0,0.,12.0,0.,12.0
1979-07-23 06:35:05.070 ,2,0,0.,12.0,0.,12.0,0.,12.0,0.,12.0
1979-07-23 06:35:17.070 ,1,0,0.,12.0,0.,12.0,0.,12.0,0.,12.0
1979-07-23 06:35:29.070 ,1,0,0.,12.0,0.,12.0,0.,12.0,0.,12.0
1979-07-23 06:35:41.070 ,1,0,0.,12.0,0.,12.0,0.,12.0,0.,12.0
1979-07-23 06:35:53.070 ,1,0,0.,12.0,0.,12.0,0.,12.0,0.,12.0
1979-07-23 06:36:05.070 ,0,0,0.,12.0,0.,12.0,0.,12.0,0.,12.0
1979-07-23 06:36:17.070 ,0,0,0.,12.0,0.,12.0,0.,12.0,0.,12.0
1979-07-23 06:36:29.070 ,0,0,0.,12.0,0.,12.0,0.,12.0,0.,12.0
1979-07-23 06:36:41.070 ,0,0,0.,12.0,0.,12.0,0.,12.0,0.,12.0
1979-07-23 06:36:53.070 ,0,0,0.,12.0,0.,12.0,0.,12.0,0.,12.0
1979-07-23 06:37:05.070 ,0,0,0.,12.0,0.,12.0,0.,12.0,0.,12.0
1979-07-23 06:37:17.070 ,0,0,0.,12.0,0.,12.0,0.,12.0,0.,12.0
1979-07-23 06:37:29.070 ,0,0,0.,12.0,0.,12.0,0.,12.0,0.,12.0
1979-07-23 06:37:41.070 ,1,0,0.,12.0,0.,12.0,0.,12.0,0.,12.0
1979-07-23 06:37:53.070 ,1,0,0.,12.0,0.,12.0,0.,12.0,0.,12.0
1979-07-23 06:38:05.070 ,1,0,0.,12.0,0.,12.0,0.,12.0,0.,12.0
1979-07-23 06:38:17.070 ,1,0,0.,12.0,0.,12.0,0.,12.0,0.,12.0
1979-07-23 06:38:29.070 ,2,0,0.,12.0,0.,12.0,0.,12.0,0.,12.0
1979-07-23 06:38:41.070 ,2,0,0.,12.0,0.,12.0,0.,12.0,0.,12.0
1979-07-23 06:38:53.070 ,2,0,0.,12.0,0.,12.0,0.,12.0,0.,12.0
1979-07-23 06:39:05.070 ,2,0,0.,12.0,0.,12.0,0.,12.0,0.,12.0
1979-07-23 06:39:17.070 ,3,0,0.,12.0,0.,12.0,0.,12.0,0.,12.0
1979-07-23 06:39:29.070 ,3,0,0.,12.0,0.,12.0,0.,12.0,0.,12.0
1979-07-23 06:39:41.070 ,3,0,0.,12.0,0.,12.0,0.,12.0,0.,12.0
1979-07-23 06:39:53.070 ,3,0,0.,12.0,0.,12.0,0.,12.0,0.,12.0
1979-07-23 06:40:05.070 ,4,0,0.,12.0,0.,12.0,0.,12.0,0.,12.0
1979-07-23 06:40:17.070 ,4,0,0.,12.0,0.,12.0,0.,12.0,0.,12.0
1979-07-23 06:40:29.070 ,4,0,0.,12.0,0.,12.0,0.,12.0,0.,12.0
1979-07-23 06:40:41.070 ,4,0,0.,12.0,0.,12.0,0.,12.0,0.,12.0
1979-07-23 06:40:53.070 ,5,0,0.,12.0,0.,12.0,0.,12.0,0.,12.0
1979-07-23 06:41:05.070 ,5,0,0.,12.0,0.,12.0,0.,12.0,0.,12.0
1979-07-23 06:41:17.070 ,5,0,0.,12.0,0.,12.0,0.,12.0,0.,12.0
1979-07-23 06:41:29.070 ,5,0,0.,12.0,0.,12.0,0.,12.0,0.,12.0
1979-07-23 06:41:41.070 ,6,0,0.,12.0,0.,12.0,0.,12.0,0.,12.0
1979-07-23 06:41:53.070 ,6,0,0.,12.0,0.,12.0,0.,12.0,0.,12.0
1979-07-23 06:42:05.070 ,6,0,0.,12.0,0.,12.0,0.,12.0,0.,12.0
1979-07-23 06:42:17.070 ,6,0,0.,12.0,0.,12.0,0.,12.0,0.,12.0
1979-07-23 06:42:29.070 ,7,0,0.,12.0,0.,12.0,0.,12.0,0.,12.0
1979-07-23 06:42:41.070 ,7,0,0.,12.0,0.,12.0,0.,12.0,0.,12.0
1979-07-23 06:42:53.070 ,0,0,0.,12.0,0.,12.0,0.,12.0,0.,12.0
1979-07-23 06:43:05.070 ,0,0,,0,,0,,0,,0
1979-07-23 06:43:02.070 ,7,0,,0,,0,,0,,0
1979-07-23 06:43:14.070 ,7,0,0.,12.0,0.,12.0,0.,12.0,0.,12.0
1979-07-23 06:43:17.070 ,3,1,0.,12.0,0.,12.0,0.,12.0,0.,12.0
1979-07-23 06:43:29.070 ,3,1,0.,12.0,0.,12.0,0.,12.0,0.,12.0
1979-07-23 06:43:41.070 ,0,1,0.,12.0,0.,12.0,0.,12.0,0.,12.0
1979-07-23 06:43:53.070 ,0,1,0.,12.0,0.,12.0,0.,12.0,0.,12.0
1979-07-23 06:44:05.070 ,4,1,0.,12.0,0.,12.0,0.,12.0,0.,12.0
1979-07-23 06:44:17.070 ,4,1,0.,12.0,0.,12.0,0.,12.0,0.,12.0
1979-07-23 06:44:29.070 ,7,1,0.,12.0,0.,12.0,0.,12.0,0.,12.0
1979-07-23 06:44:41.070 ,7,1,0.,12.0,0.,12.0,0.,12.0,0.,12.0
1979-07-23 06:44:53.070 ,3,1,0.,12.0,0.,12.0,0.,12.0,0.,12.0
1979-07-23 06:45:05.070 ,3,1,0.,12.0,0.,12.0,0.,12.0,0.,12.0
1979-07-23 06:45:17.070 ,0,1,0.,12.0,0.,12.0,0.,12.0,0.,12.0
1979-07-23 06:45:29.070 ,0,1,0.,12.0,0.,12.0,0.,12.0,0.,12.0
1979-07-23 06:45:41.070 ,4,1,0.,12.0,0.,12.0,0.,12.0,0.,12.0
1979-07-23 06:45:53.070 ,4,1,0.,12.0,0.,12.0,0.,12.0,0.,12.0
1979-07-23 06:46:05.070 ,7,1,0.,12.0,0.,12.0,0.,12.0,0.,12.0
1979-07-23 06:46:17.070 ,7,1,0.,12.0,0.,12.0,0.,12.0,0.,12.0
1979-07-23 06:46:29.070 ,3,1,0.,12.0,0.,12.0,0.,12.0,0.,12.0
1979-07-23 06:46:41.070 ,3,1,0.,12.0,0.,12.0,0.,12.0,0.,12.0
1979-07-23 06:46:53.070 ,0,1,0.,12.0,0.,12.0,0.,12.0,0.,12.0
1979-07-23 06:47:05.070 ,0,1,0.,12.0,0.,12.0,0.,12.0,0.,12.0
1979-07-23 06:47:17.070 ,4,1,0.,12.0,0.,12.0,0.,12.0,0.,12.0
1979-07-23 06:47:29.070 ,4,1,0.,12.0,0.,12.0,0.,12.0,0.,12.0
1979-07-23 06:47:41.070 ,7,1,0.,12.0,0.,12.0,0.,12.0,0.,12.0
1979-07-23 06:47:53.070 ,7,1,0.,12.0,0.,12.0,0.,12.0,0.,12.0
1979-07-23 06:48:05.070 ,3,1,0.,12.0,0.,12.0,0.,12.0,0.,12.0
1979-07-23 06:48:17.070 ,3,1,0.,12.0,0.,12.0,0.,12.0,0.,12.0
1979-07-23 06:48:29.070 ,0,1,1.,12.0,0.,12.0,0.,12.0,0.,12.0
1979-07-23 06:48:41.070 ,0,1,1.,12.0,0.,12.0,0.,12.0,0.,12.0
1979-07-23 06:48:53.070 ,4,1,0.,12.0,0.,12.0,0.,12.0,0.,12.0
1979-07-23 06:49:05.070 ,4,1,0.,12.0,0.,12.0,0.,12.0,0.,12.0
1979-07-23 06:49:17.070 ,7,1,0.,12.0,0.,12.0,0.,12.0,0.,12.0
1979-07-23 06:49:29.070 ,7,1,0.,12.0,0.,12.0,0.,12.0,0.,12.0
1979-07-23 06:49:41.070 ,3,1,0.,12.0,0.,12.0,0.,12.0,0.,12.0
1979-07-23 06:49:53.070 ,3,1,0.,12.0,0.,12.0,0.,12.0,0.,12.0
1979-07-23 06:50:05.070 ,0,1,0.,12.0,0.,12.0,0.,12.0,0.,12.0
1979-07-23 06:50:17.070 ,0,1,0.,12.0,0.,12.0,0.,12.0,0.,12.0
1979-07-23 06:50:29.070 ,4,1,0.,12.0,0.,12.0,0.,12.0,0.,12.0
1979-07-23 06:50:41.070 ,4,1,0.,12.0,0.,12.0,0.,12.0,0.,12.0
1979-07-23 06:50:53.070 ,7,1,0.,12.0,0.,12.0,0.,12.0,0.,12.0
1979-07-23 06:51:05.070 ,7,1,0.,12.0,0.,12.0,0.,12.0,0.,12.0
1979-07-23 06:51:17.070 ,3,1,0.,12.0,0.,12.0,0.,12.0,0.,12.0
1979-07-23 06:51:29.070 ,3,1,0.,12.0,0.,12.0,0.,12.0,0.,12.0
1979-07-23 06:51:41.070 ,0,1,0.,12.0,0.,12.0,0.,12.0,0.,12.0
1979-07-23 06:51:53.070 ,0,1,0.,12.0,0.,12.0,0.,12.0,0.,12.0
1979-07-23 06:52:05.070 ,4,1,0.,12.0,0.,12.0,0.,12.0,0.,12.0
1979-07-23 06:52:17.070 ,4,1,1.,12.0,0.,12.0,0.,12.0,0.,12.0
1979-07-23 06:52:29.070 ,7,1,0.,12.0,0.,12.0,0.,12.0,0.,12.0
1979-07-23 06:52:41.070 ,7,1,0.,12.0,0.,12.0,0.,12.0,0.,12.0
1979-07-23 06:52:53.070 ,3,1,0.,12.0,0.,12.0,0.,12.0,0.,12.0
1979-07-23 06:53:05.070 ,3,1,0.,12.0,0.,12.0,0.,12.0,0.,12.0
1979-07-23 06:53:17.070 ,0,1,0.,12.0,0.,12.0,0.,12.0,0.,12.0
1979-07-23 06:53:29.070 ,0,1,0.,12.0,0.,12.0,0.,12.0,0.,12.0
1979-07-23 06:53:41.070 ,0,0,0.,12.0,0.,12.0,0.,12.0,0.,12.0
1979-07-23 06:53:53.070 ,0,0,0.,12.0,0.,12.0,0.,12.0,0.,12.0
1979-07-23 06:54:05.070 ,0,0,0.,12.0,0.,12.0,0.,12.0,0.,12.0
1979-07-23 06:54:17.070 ,0,0,0.,12.0,0.,12.0,0.,12.0,0.,12.0
1979-07-23 06:54:29.070 ,5,0,0.,12.0,0.,12.0,0.,12.0,0.,12.0
1979-07-23 06:54:41.070 ,5,0,0.,12.0,0.,12.0,0.,12.0,0.,12.0
1979-07-23 06:54:53.070 ,5,0,0.,12.0,0.,12.0,0.,12.0,0.,12.0
1979-07-23 06:55:05.070 ,5,0,0.,12.0,0.,12.0,0.,12.0,0.,12.0
1979-07-23 06:55:17.070 ,4,0,0.,12.0,0.,12.0,0.,12.0,0.,12.0
1979-07-23 06:55:29.070 ,4,0,0.,12.0,0.,12.0,0.,12.0,0.,12.0
1979-07-23 06:55:41.070 ,4,0,0.,12.0,0.,12.0,0.,12.0,0.,12.0
1979-07-23 06:55:53.070 ,4,0,0.,12.0,0.,12.0,0.,12.0,0.,12.0
1979-07-23 06:56:05.070 ,3,0,0.,12.0,0.,12.0,0.,12.0,0.,12.0
1979-07-23 06:56:17.070 ,3,0,0.,12.0,0.,12.0,0.,12.0,0.,12.0
1979-07-23 06:56:29.070 ,3,0,0.,12.0,0.,12.0,0.,12.0,0.,12.0
1979-07-23 06:56:41.070 ,3,0,0.,12.0,0.,12.0,0.,12.0,0.,12.0
1979-07-23 06:56:53.070 ,2,0,0.,12.0,0.,12.0,0.,12.0,0.,12.0
1979-07-23 06:57:05.070 ,2,0,0.,12.0,0.,12.0,0.,12.0,0.,12.0
1979-07-23 06:57:17.070 ,2,0,0.,12.0,0.,12.0,0.,12.0,0.,12.0
1979-07-23 06:57:29.070 ,2,0,0.,12.0,0.,12.0,0.,12.0,0.,12.0
1979-07-23 06:57:41.070 ,1,0,0.,12.0,0.,12.0,0.,12.0,0.,12.0
1979-07-23 06:57:53.070 ,1,0,1.,12.0,0.,12.0,0.,12.0,0.,12.0
1979-07-23 06:58:05.070 ,1,0,0.,12.0,0.,12.0,0.,12.0,0.,12.0
1979-07-23 06:58:17.070 ,1,0,0.,12.0,0.,12.0,0.,12.0,0.,12.0
1979-07-23 06:58:29.070 ,0,0,0.,12.0,0.,12.0,0.,12.0,0.,12.0
1979-07-23 06:58:41.070 ,0,0,0.,12.0,0.,12.0,0.,12.0,0.,12.0
1979-07-23 06:58:53.070 ,0,0,0.,12.0,0.,12.0,0.,12.0,0.,12.0
1979-07-23 06:59:05.070 ,0,0,0.,12.0,0.,12.0,0.,12.0,0.,12.0
1979-07-23 06:59:17.070 ,0,0,0.,12.0,0.,12.0,0.,12.0,0.,12.0
1979-07-23 06:59:29.070 ,0,0,1.,12.0,0.,12.0,0.,12.0,0.,12.0
1979-07-23 06:59:41.070 ,0,0,0.,12.0,0.,12.0,0.,12.0,0.,12.0
1979-07-23 06:59:53.070 ,0,0,0.,12.0,0.,12.0,0.,12.0,0.,12.0
1979-07-23 07:00:05.070 ,1,0,0.,12.0,0.,12.0,0.,12.0,0.,12.0
1979-07-23 07:00:17.070 ,1,0,0.,12.0,0.,12.0,0.,12.0,0.,12.0
1979-07-23 07:00:29.070 ,1,0,0.,12.0,0.,12.0,0.,12.0,0.,12.0
1979-07-23 07:00:41.070 ,1,0,0.,12.0,0.,12.0,0.,12.0,0.,12.0
1979-07-23 07:00:53.070 ,2,0,0.,12.0,0.,12.0,0.,12.0,0.,12.0
1979-07-23 07:01:05.070 ,2,0,0.,12.0,0.,12.0,0.,12.0,0.,12.0
1979-07-23 07:01:17.070 ,2,0,0.,12.0,0.,12.0,0.,12.0,0.,12.0
1979-07-23 07:01:29.070 ,2,0,0.,12.0,0.,12.0,0.,12.0,0.,12.0
1979-07-23 07:01:41.070 ,3,0,0.,12.0,0.,12.0,0.,12.0,0.,12.0
1979-07-23 07:01:53.070 ,3,0,0.,12.0,0.,12.0,0.,12.0,0.,12.0
1979-07-23 07:02:05.070 ,3,0,0.,12.0,0.,12.0,0.,12.0,0.,12.0
1979-07-23 07:02:17.070 ,3,0,0.,12.0,0.,12.0,0.,12.0,0.,12.0
1979-07-23 07:02:29.070 ,4,0,0.,12.0,0.,12.0,0.,12.0,0.,12.0
1979-07-23 07:02:41.070 ,4,0,0.,12.0,0.,12.0,0.,12.0,0.,12.0
1979-07-23 07:02:53.070 ,4,0,0.,12.0,0.,12.0,0.,12.0,0.,12.0
1979-07-23 07:03:05.070 ,4,0,0.,12.0,0.,12.0,0.,12.0,0.,12.0
1979-07-23 07:03:17.070 ,5,0,0.,12.0,0.,12.0,0.,12.0,0.,12.0
1979-07-23 07:03:29.070 ,5,0,0.,12.0,0.,12.0,0.,12.0,0.,12.0
1979-07-23 07:03:41.070 ,5,0,0.,12.0,0.,12.0,0.,12.0,0.,12.0
1979-07-23 07:03:53.070 ,5,0,0.,12.0,0.,12.0,0.,12.0,0.,12.0
1979-07-23 07:04:05.070 ,6,0,0.,12.0,0.,12.0,0.,12.0,0.,12.0
1979-07-23 07:04:17.070 ,6,0,0.,12.0,0.,12.0,0.,12.0,0.,12.0
1979-07-23 07:04:29.070 ,6,0,0.,12.0,0.,12.0,0.,12.0,0.,12.0
1979-07-23 07:04:41.070 ,6,0,0.,12.0,0.,12.0,0.,12.0,0.,12.0
1979-07-23 07:04:53.070 ,7,0,0.,12.0,0.,12.0,0.,12.0,0.,12.0
1979-07-23 07:05:05.070 ,7,0,0.,12.0,0.,12.0,0.,12.0,0.,12.0
1979-07-23 07:05:17.070 ,7,0,0.,12.0,0.,12.0,0.,12.0,0.,12.0
1979-07-23 07:05:29.070 ,7,0,0.,12.0,0.,12.0,0.,12.0,0.,12.0
1979-07-23 07:05:41.070 ,7,0,0.,12.0,0.,12.0,0.,12.0,0.,12.0
1979-07-23 07:05:53.070 ,7,0,0.,12.0,0.,12.0,0.,12.0,0.,12.0
1979-07-23 07:06:05.070 ,7,0,0.,12.0,0.,12.0,0.,12.0,0.,12.0
1979-07-23 07:06:17.070 ,7,0,0.,12.0,0.,12.0,0.,12.0,0.,12.0
1979-07-23 07:06:29.070 ,6,0,0.,12.0,0.,12.0,0.,12.0,0.,12.0
1979-07-23 07:06:41.070 ,6,0,0.,12.0,0.,12.0,0.,12.0,0.,12.0
1979-07-23 07:06:53.070 ,6,0,0.,12.0,0.,12.0,0.,12.0,0.,12.0
1979-07-23 07:07:05.070 ,6,0,0.,12.0,0.,12.0,0.,12.0,0.,12.0
1979-07-23 07:07:17.070 ,5,0,0.,12.0,0.,12.0,0.,12.0,0.,12.0
1979-07-23 07:07:29.070 ,5,0,0.,12.0,0.,12.0,0.,12.0,0.,12.0
1979-07-23 07:07:41.070 ,5,0,0.,12.0,0.,12.0,0.,12.0,0.,12.0
1979-07-23 07:07:53.070 ,5,0,0.,12.0,0.,12.0,0.,12.0,0.,12.0
1979-07-23 07:08:05.070 ,4,0,0.,12.0,0.,12.0,0.,12.0,0.,12.0
1979-07-23 07:08:17.070 ,4,0,0.,12.0,0.,12.0,0.,12.0,0.,12.0
1979-07-23 07:08:29.070 ,4,0,0.,12.0,0.,12.0,0.,12.0,0.,12.0
1979-07-23 07:08:41.070 ,4,0,0.,12.0,0.,12.0,0.,12.0,0.,12.0
1979-07-23 07:08:53.070 ,3,0,0.,12.0,0.,12.0,0.,12.0,0.,12.0
1979-07-23 07:09:05.070 ,3,0,0.,12.0,0.,12.0,0.,12.0,0.,12.0
1979-07-23 07:09:17.070 ,3,0,0.,12.0,0.,12.0,0.,12.0,0.,12.0
1979-07-23 07:09:29.070 ,3,0,0.,12.0,0.,12.0,0.,12.0,0.,12.0
1979-07-23 07:09:41.070 ,2,0,0.,12.0,0.,12.0,0.,12.0,0.,12.0
1979-07-23 07:09:53.070 ,2,0,0.,12.0,0.,12.0,0.,12.0,0.,12.0
1979-07-23 07:10:05.070 ,2,0,0.,12.0,0.,12.0,0.,12.0,0.,12.0
1979-07-23 07:10:17.070 ,2,0,0.,12.0,0.,12.0,0.,12.0,0.,12.0
1979-07-23 07:10:29.070 ,1,0,0.,12.0,0.,12.0,0.,12.0,0.,12.0
1979-07-23 07:10:41.070 ,1,0,0.,12.0,0.,12.0,0.,12.0,0.,12.0
1979-07-23 07:10:53.070 ,1,0,0.,12.0,0.,12.0,0.,12.0,0.,12.0
1979-07-23 07:11:05.070 ,1,0,0.,12.0,0.,12.0,0.,12.0,0.,12.0
1979-07-23 07:11:17.070 ,0,0,0.,12.0,0.,12.0,0.,12.0,0.,12.0
1979-07-23 07:11:29.070 ,0,0,0.,12.0,0.,12.0,0.,12.0,0.,12.0
1979-07-23 07:11:41.070 ,0,0,0.,12.0,0.,12.0,0.,12.0,0.,12.0
1979-07-23 07:11:53.070 ,0,0,0.,12.0,0.,12.0,0.,12.0,0.,12.0
1979-07-23 07:12:05.070 ,0,0,0.,12.0,0.,12.0,0.,12.0,0.,12.0
1979-07-23 07:12:17.070 ,0,0,0.,12.0,0.,12.0,0.,12.0,0.,12.0
1979-07-23 07:12:29.070 ,0,0,0.,12.0,0.,12.0,0.,12.0,0.,12.0
1979-07-23 07:12:41.070 ,0,0,0.,12.0,0.,12.0,0.,12.0,0.,12.0
1979-07-23 07:12:53.070 ,1,0,0.,12.0,0.,12.0,0.,12.0,0.,12.0
1979-07-23 07:13:05.070 ,1,0,0.,12.0,0.,12.0,0.,12.0,0.,12.0
1979-07-23 07:13:17.070 ,1,0,0.,12.0,0.,12.0,0.,12.0,0.,12.0
1979-07-23 07:13:29.070 ,1,0,0.,12.0,0.,12.0,0.,12.0,0.,12.0
1979-07-23 07:13:41.070 ,2,0,0.,12.0,0.,12.0,0.,12.0,0.,12.0
1979-07-23 07:13:53.070 ,2,0,0.,12.0,0.,12.0,0.,12.0,0.,12.0
1979-07-23 07:14:05.070 ,2,0,0.,12.0,0.,12.0,0.,12.0,0.,12.0
1979-07-23 07:14:17.070 ,2,0,0.,12.0,0.,12.0,0.,12.0,0.,12.0
1979-07-23 07:14:29.070 ,3,0,0.,12.0,0.,12.0,0.,12.0,0.,12.0
1979-07-23 07:14:41.070 ,3,0,0.,12.0,0.,12.0,0.,12.0,0.,12.0
1979-07-23 07:14:53.070 ,3,0,0.,12.0,0.,12.0,0.,12.0,0.,12.0
1979-07-23 07:15:05.070 ,3,0,0.,12.0,0.,12.0,0.,12.0,0.,12.0
1979-07-23 07:15:17.070 ,4,0,0.,12.0,0.,12.0,0.,12.0,0.,12.0
1979-07-23 07:15:29.070 ,4,0,0.,12.0,0.,12.0,0.,12.0,0.,12.0
1979-07-23 07:15:41.070 ,4,0,0.,12.0,0.,12.0,0.,12.0,0.,12.0
1979-07-23 07:15:53.070 ,4,0,0.,12.0,0.,12.0,0.,12.0,0.,12.0
1979-07-23 07:16:05.070 ,5,0,0.,12.0,0.,12.0,0.,12.0,0.,12.0
1979-07-23 07:16:17.070 ,5,0,0.,12.0,0.,12.0,0.,12.0,0.,12.0
1979-07-23 07:16:29.070 ,5,0,0.,12.0,0.,12.0,0.,12.0,0.,12.0
1979-07-23 07:16:41.070 ,5,0,0.,12.0,0.,12.0,0.,12.0,0.,12.0
1979-07-23 07:16:53.070 ,6,0,0.,12.0,0.,12.0,0.,12.0,0.,12.0
1979-07-23 07:17:05.070 ,6,0,0.,12.0,0.,12.0,0.,12.0,0.,12.0